Wind_Speed
12 12 12 14 13 13 13 13 14 15 15 15 15 16 16 17 17 18 18 17 16 16 17 17 17 17 17 18 20 21 20 15 6 4 4 1 1 3 7 11 17 21 18 15 15 12 10 8 6 6 5 3 2 0 0 2 3 3 2 7 6 8 7 7 8 6 7 8 7 7 4 5 7 5 3 4 6 7 7 6 6 7 8 9 10 12 13 13
12 12 13 14 14 13 13 13 14 15 15 15 15 16 16 16 17 17 18 18 17 16 17 17 17 17 17 18 19 20 19 12 6 5 3 2 1 5 8 12 17 19 18 16 14 11 7 6 7 6 4 2 0 0 0 1 2 3 6 7 7 8 7 6 8 6 6 8 8 7 6 6 7 5 3 4 7 7 7 6 6 9 9 9 10 10 12 11
13 13 13 14 14 14 13 14 15 15 15 15 15 15 16 16 16 17 17 18 17 16 17 17 17 17 17 17 18 18 15 9 6 0 2 0 3 6 10 13 15 17 14 12 11 6 1 4 8 6 4 1 1 1 1 1 3 4 4 7 7 7 8 7 7 7 8 9 9 8 7 7 7 5 4 5 7 6 6 6 6 9 9 9 9 9 10 10
14 14 14 13 13 14 14 14 15 15 14 14 14 14 15 15 16 16 17 18 18 17 16 17 17 17 17 17 16 15 11 9 3 5 2 2 5 8 11 13 16 14 8 8 8 3 1 6 8 5 4 1 3 0 3 4 2 5 5 7 7 6 8 7 7 8 8 8 8 9 8 8 7 4 5 6 6 5 5 5 4 7 10 10 9 8 9 9
14 14 14 13 14 14 14 14 15 14 14 14 14 14 14 15 15 15 16 17 17 17 16 17 17 17 17 16 13 11 8 6 3 5 0 3 7 10 12 15 17 10 6 8 7 4 5 7 6 5 4 2 3 2 6 5 2 5 8 8 7 6 8 7 8 8 7 7 8 9 8 8 6 4 5 5 3 4 4 5 4 6 9 9 8 7 7 7
14 15 14 14 14 14 14 14 14 14 14 14 13 13 13 14 14 15 15 16 17 17 16 16 17 17 17 15 10 6 7 2 5 2 1 5 8 11 14 17 16 9 7 9 7 6 6 6 5 3 2 2 4 4 6 4 1 3 8 8 7 8 9 8 7 7 6 6 7 7 7 7 7 6 5 2 3 4 5 5 5 6 7 6 6 6 5 5
14 14 14 15 14 14 14 14 14 14 14 14 13 13 13 13 13 14 15 15 16 16 16 16 16 17 17 13 6 4 7 1 5 2 2 6 9 13 15 17 15 9 9 9 6 5 4 5 3 2 1 3 5 5 6 4 1 5 9 8 8 10 9 8 7 6 4 5 7 6 7 7 6 7 5 2 5 5 6 6 6 7 6 5 5 4 4 3
14 14 14 14 15 15 15 14 14 14 14 14 14 13 13 13 13 13 14 14 15 15 15 15 15 16 16 11 6 5 6 4 6 3 4 7 11 14 16 15 12 8 8 7 4 3 3 2 3 5 2 4 3 4 5 4 4 7 9 9 8 9 9 8 7 6 5 5 5 5 6 5 4 6 5 5 6 7 8 8 8 7 6 4 4 4 3 3
14 14 14 14 15 15 15 15 15 14 14 14 14 14 13 13 12 12 13 13 14 14 14 14 13 14 14 9 6 6 1 6 4 3 5 9 14 17 16 12 11 10 8 6 4 4 3 3 6 6 5 4 1 3 4 3 4 8 9 10 9 9 10 8 8 7 6 5 3 5 6 4 5 6 5 6 6 8 9 9 9 8 7 6 5 4 4 3
14 15 14 14 14 14 15 15 15 15 15 14 14 14 13 13 12 12 12 12 13 13 13 12 12 12 9 7 7 6 3 6 3 5 8 11 15 18 15 10 11 11 8 5 5 5 4 5 8 6 4 1 0 1 2 2 5 9 9 11 10 9 9 7 8 7 5 5 3 5 6 6 6 5 3 7 7 8 9 10 10 8 7 6 5 4 4 3
15 15 15 15 15 15 15 15 16 15 15 15 14 13 13 13 12 12 12 11 12 12 12 11 11 10 7 6 7 4 6 7 5 7 9 13 15 16 15 11 11 11 8 5 6 7 7 6 7 6 3 1 0 2 2 3 7 10 10 11 10 8 8 7 8 7 5 5 4 4 5 5 5 4 5 11 9 9 10 10 10 8 7 6 5 5 4 3
15 16 16 16 16 16 16 16 16 16 16 15 14 13 13 13 13 12 12 11 11 11 10 9 9 9 7 6 6 2 5 5 5 6 7 12 13 11 12 11 11 10 7 6 5 5 7 7 7 7 4 2 1 4 4 3 6 10 9 7 9 8 8 8 8 7 5 4 5 4 4 5 6 4 10 12 10 9 10 9 9 7 6 6 6 5 4 4
16 16 16 16 17 17 17 17 17 16 16 15 14 13 13 12 13 13 12 11 10 9 7 7 7 7 6 6 2 0 1 3 3 4 6 11 9 7 9 10 11 10 9 9 7 5 7 6 7 8 5 3 2 4 5 5 5 9 6 2 6 6 7 10 8 8 6 5 8 5 1 5 7 7 11 12 11 11 10 9 9 7 6 6 6 6 5 5
16 16 16 17 18 18 18 18 17 17 16 14 13 13 13 13 12 12 12 10 7 6 5 5 5 4 5 5 0 3 5 2 3 5 8 11 9 7 9 11 11 11 10 11 9 7 7 6 7 7 5 2 3 5 6 6 5 6 4 3 3 3 4 11 10 10 8 5 9 7 2 4 9 10 12 12 12 13 10 10 10 8 7 6 5 5 5 6
15 16 17 18 18 19 19 19 19 18 15 13 13 13 12 11 10 10 9 7 4 4 3 2 3 2 6 6 2 4 6 4 6 7 10 12 11 7 8 12 12 11 10 9 8 6 6 5 7 5 2 2 5 7 5 5 4 4 3 2 2 3 4 10 11 11 8 5 10 9 2 3 9 11 12 11 11 12 11 10 10 9 9 7 6 6 5 6
15 16 17 18 19 20 20 20 20 17 13 13 13 11 9 7 6 5 3 2 3 3 1 0 1 2 6 4 3 3 3 4 3 5 9 11 11 7 6 9 8 9 9 7 6 6 5 6 5 2 3 4 6 6 3 4 4 4 3 3 1 2 1 5 11 12 8 6 10 11 5 2 7 11 13 12 12 12 11 11 11 10 10 9 7 6 6 6
15 16 17 18 19 20 20 21 20 14 13 13 9 5 5 4 1 1 3 4 4 4 1 1 0 3 6 3 3 5 3 1 1 3 6 8 10 8 6 7 6 7 8 6 6 6 7 6 3 2 4 4 4 4 4 4 2 3 3 3 1 2 3 1 7 12 11 8 9 11 8 3 6 11 13 13 13 13 11 11 12 11 10 9 7 7 7 7
16 16 17 18 20 21 20 22 19 12 12 10 4 3 4 4 4 5 5 5 5 4 1 1 2 4 6 6 5 2 1 2 2 3 5 7 9 10 9 8 6 7 8 6 6 8 7 5 4 4 4 5 5 6 5 1 2 2 2 4 3 2 2 2 1 9 14 12 9 10 10 8 6 10 12 13 14 13 12 11 11 11 11 10 9 8 7 8
16 17 18 19 20 21 21 22 16 10 12 8 1 2 1 2 3 3 4 4 3 4 2 3 7 5 2 3 3 3 4 5 5 6 6 7 8 11 12 8 7 9 8 6 8 8 6 5 6 6 6 6 6 7 7 3 4 6 6 6 6 5 1 2 4 6 13 11 10 11 10 9 8 10 12 13 14 13 12 11 10 11 11 11 9 8 8 8
17 18 19 19 20 21 22 21 13 9 12 6 2 4 3 2 2 3 4 6 8 9 8 4 8 9 6 2 2 5 5 4 4 6 6 7 8 11 12 10 9 9 8 8 7 6 5 7 8 8 8 8 7 8 8 5 4 7 7 7 7 7 3 3 4 5 10 9 9 12 12 10 9 10 12 13 14 13 13 12 11 11 11 11 11 10 9 8
17 19 19 20 21 21 23 19 10 9 10 6 2 4 1 4 3 2 2 7 10 11 13 11 10 12 11 8 6 6 4 3 6 6 6 6 8 9 9 10 11 9 10 11 6 3 5 9 10 11 9 6 6 8 8 6 6 7 7 7 6 6 4 5 3 3 8 8 7 9 12 11 10 9 11 14 14 15 15 14 13 13 12 11 12 12 10 8
18 19 20 21 21 21 23 16 7 8 7 5 4 1 5 6 4 4 4 8 8 8 11 11 10 11 12 13 9 3 4 6 8 8 8 7 8 9 8 10 12 11 10 10 6 5 8 10 13 12 6 4 6 7 7 7 8 7 6 7 6 5 4 4 2 2 6 6 4 5 9 10 10 10 11 14 15 13 14 15 13 14 13 11 12 13 12 11
18 20 20 22 22 22 23 13 5 9 6 3 5 4 4 5 5 4 5 7 7 6 8 9 9 10 11 12 8 7 8 9 9 7 9 10 9 9 9 9 13 13 10 11 10 10 9 8 12 9 4 6 9 7 8 8 8 7 7 7 6 5 5 1 2 4 5 4 3 3 6 7 7 9 11 13 14 12 13 15 14 13 13 12 12 12 13 14
19 20 21 23 22 22 23 10 2 9 6 1 3 5 4 7 5 4 5 6 6 4 4 4 6 8 8 4 6 11 10 7 7 4 7 11 8 6 9 10 12 13 11 12 13 13 10 2 2 3 5 10 11 8 9 8 7 8 9 8 8 7 6 4 2 4 5 6 5 5 6 5 5 8 10 12 13 13 13 14 14 13 12 12 12 12 14 15
19 20 22 23 22 23 20 4 3 11 8 3 2 2 6 10 5 4 5 5 4 3 4 4 3 5 4 2 6 9 7 7 10 6 5 10 9 6 7 7 8 12 13 13 11 12 11 2 3 2 5 9 11 9 10 9 7 9 9 7 7 8 6 3 2 3 5 5 6 7 6 3 2 6 10 10 12 14 13 14 16 14 12 11 12 13 14 14
19 20 22 23 24 24 13 2 4 15 8 4 2 2 8 13 4 6 4 5 3 3 3 5 3 3 4 5 7 6 5 6 8 7 6 8 7 5 6 5 5 9 11 10 7 7 6 4 4 7 6 7 9 8 9 8 8 8 5 3 5 7 6 3 4 5 5 1 4 7 6 3 1 4 8 9 12 14 14 16 17 14 14 13 12 12 13 14
19 20 22 22 24 24 10 2 12 14 4 3 1 6 11 12 2 7 4 4 3 1 1 2 1 2 2 4 9 7 3 3 5 9 9 8 7 5 7 7 7 6 4 4 6 6 6 7 8 10 10 10 9 9 9 9 10 6 2 2 5 6 6 5 6 7 4 2 4 7 5 6 4 1 4 8 10 12 14 17 17 15 15 15 13 13 15 15
19 20 21 21 23 22 11 8 14 9 1 3 5 9 12 6 6 6 6 3 2 1 1 3 2 2 1 4 10 7 2 1 5 8 9 8 8 6 9 10 9 10 8 6 8 6 8 11 11 12 12 10 10 12 10 8 11 6 3 1 5 6 7 7 7 6 3 4 4 5 5 6 5 2 5 8 9 11 14 17 17 17 16 15 15 15 15 15
19 20 20 22 23 19 14 14 13 5 3 6 9 12 10 1 6 4 6 2 1 1 1 2 3 4 4 5 9 8 3 2 2 5 9 9 7 4 7 8 8 9 8 9 10 5 5 4 6 10 11 9 11 12 9 9 10 4 2 3 4 5 7 6 7 6 3 5 8 4 7 6 6 3 4 4 4 7 11 13 14 15 15 15 15 15 16 15
19 19 20 22 19 14 16 16 9 4 6 10 11 10 4 5 4 5 5 2 0 2 2 2 3 3 6 8 9 8 5 1 2 6 8 8 8 5 2 3 5 6 6 8 11 8 2 3 0 7 8 8 9 8 7 9 8 2 4 7 6 5 5 4 5 4 4 7 7 4 6 7 7 4 4 1 1 4 5 4 6 9 12 13 14 15 16 15
19 19 20 21 17 14 14 8 3 7 12 13 11 6 5 5 4 6 3 1 1 2 3 3 3 3 6 7 7 8 7 2 4 9 9 7 9 7 4 4 4 6 7 7 9 11 9 6 5 7 8 8 8 6 6 7 6 6 7 8 7 5 4 4 3 2 6 7 2 2 6 8 7 6 5 2 3 3 3 1 2 5 10 13 13 15 16 15
18 19 20 22 21 18 14 7 8 16 15 12 9 6 6 4 5 5 1 1 1 2 1 1 3 4 4 3 5 9 9 5 6 9 9 8 9 8 8 8 6 7 8 7 9 10 11 11 10 9 9 10 10 9 8 8 7 8 9 8 8 7 6 7 7 5 8 7 2 1 5 7 7 7 7 5 3 3 1 6 10 10 11 13 14 16 15 15
18 20 21 22 22 21 19 17 18 18 13 9 7 6 5 5 5 2 1 2 1 2 2 1 2 2 3 4 5 9 8 5 7 8 7 8 8 9 11 8 6 8 6 6 8 8 8 11 13 11 9 11 12 10 8 9 9 10 10 9 9 8 8 9 9 7 8 6 2 2 3 6 8 5 7 8 3 2 6 10 13 12 12 14 15 16 15 16
19 21 23 22 22 22 20 18 17 15 10 7 6 6 6 7 3 0 3 2 2 2 2 2 4 5 6 6 5 9 9 6 7 7 7 9 8 8 10 7 8 9 6 5 6 6 8 7 9 11 8 11 15 14 11 10 9 11 11 10 10 9 9 9 8 8 8 6 3 3 3 6 6 1 0 2 2 6 9 11 12 12 14 14 15 16 16 16
20 21 22 21 20 18 13 11 11 9 6 6 6 6 7 6 3 2 3 0 2 3 2 2 4 6 8 6 4 7 6 5 10 8 6 10 9 8 9 9 11 11 7 6 5 5 9 6 4 7 3 7 14 14 14 13 9 9 10 11 11 10 9 8 8 7 7 7 4 4 5 6 5 1 2 4 2 8 12 13 14 14 14 14 14 14 14 14
20 19 17 13 12 11 7 7 6 7 7 6 7 7 7 5 2 1 0 2 2 5 6 4 5 6 7 6 6 8 4 3 11 10 6 8 9 9 9 7 11 12 9 6 4 4 8 6 5 7 5 9 12 10 13 13 9 6 8 10 8 8 9 9 8 6 6 9 7 5 6 7 7 4 5 7 4 12 14 14 15 15 14 14 14 13 13 13
18 15 12 9 8 8 7 6 5 9 7 6 8 6 4 4 2 1 1 2 2 4 8 4 4 4 6 7 6 10 7 4 9 9 7 7 7 9 10 7 8 13 12 9 6 4 6 5 6 8 8 9 7 7 9 11 11 7 6 8 7 5 7 7 7 6 7 9 7 6 8 8 8 4 3 5 7 14 14 14 15 13 13 13 13 13 13 15
15 13 10 7 6 8 8 6 8 9 6 6 9 6 4 3 2 1 1 3 3 4 7 4 1 2 4 6 6 10 9 7 9 9 7 7 6 7 11 10 10 13 14 12 8 4 5 6 4 8 7 5 5 6 8 9 12 10 7 6 6 6 8 7 7 8 9 9 7 7 9 9 8 5 3 2 9 15 13 13 14 13 13 12 13 14 15 17
11 9 4 3 4 8 7 9 10 8 6 7 8 6 5 5 3 2 2 3 4 5 5 3 0 2 3 3 5 9 10 7 8 8 7 6 6 6 9 10 11 15 15 14 10 4 4 7 4 5 4 3 5 7 8 7 10 11 9 7 6 6 7 6 6 8 9 9 8 8 8 6 4 4 5 6 11 14 12 13 12 12 13 13 13 14 15 16
7 5 1 2 5 5 11 12 8 7 7 7 6 4 3 4 5 4 4 3 4 4 3 4 1 2 1 1 3 6 8 6 5 7 6 6 6 6 8 9 8 10 12 14 12 6 4 6 5 4 6 4 5 6 8 8 8 10 10 9 7 5 4 5 6 7 7 8 8 7 8 4 4 6 6 9 11 11 13 14 13 13 14 14 14 15 15 15
6 4 1 4 4 12 13 8 7 7 7 6 5 4 3 3 4 4 4 5 5 5 4 6 6 4 3 1 2 3 5 6 6 7 5 7 8 6 7 9 8 6 7 10 11 8 5 5 6 4 5 6 4 5 6 8 5 7 9 10 10 7 6 6 7 7 6 8 8 8 9 2 4 5 6 9 10 12 13 14 14 14 14 14 14 14 14 15
6 4 2 6 10 10 6 7 6 5 7 5 3 4 2 2 4 5 4 5 6 5 4 5 7 6 5 3 0 1 4 5 6 6 5 7 9 6 5 7 8 8 7 7 9 9 7 5 7 7 7 7 2 4 3 7 8 8 8 9 10 9 9 8 8 7 7 8 6 8 8 2 6 5 6 9 10 12 13 14 15 14 14 14 14 14 14 14
6 2 4 7 7 1 5 8 6 5 7 3 1 3 3 3 5 5 4 5 6 5 5 5 6 6 5 3 2 2 3 4 5 5 5 5 7 5 4 6 7 8 8 7 7 8 5 5 7 7 7 8 4 3 4 4 6 9 9 8 9 9 8 8 7 5 5 8 6 7 8 1 6 4 6 10 11 12 12 14 15 14 12 13 13 13 13 11
4 3 2 7 6 5 6 7 6 8 8 4 4 6 5 5 7 6 6 7 5 4 5 6 5 5 4 4 4 4 2 2 5 4 2 3 3 2 3 7 8 8 8 4 3 7 6 5 7 6 6 7 6 5 6 5 7 8 8 9 10 11 10 8 6 5 6 10 9 9 8 1 5 4 7 10 12 13 13 13 15 14 13 13 12 12 11 11
3 4 2 5 7 6 6 4 4 7 9 7 8 9 7 6 7 8 8 7 6 6 6 4 3 4 4 5 6 6 5 3 4 3 2 4 4 3 4 8 8 9 8 2 1 5 6 4 5 6 6 5 4 3 2 3 7 9 9 10 11 13 13 9 6 7 8 7 7 9 6 4 7 7 9 11 12 14 14 14 14 14 14 14 13 12 11 12
3 4 4 5 6 7 6 4 5 6 7 8 7 7 9 8 6 6 7 8 8 8 7 5 4 5 6 7 7 5 5 4 3 3 3 4 4 3 4 6 8 9 5 1 4 6 5 4 6 8 8 4 2 2 3 2 5 7 8 9 9 12 13 10 9 8 6 5 5 7 4 6 10 9 10 10 11 13 14 14 14 14 14 14 13 12 11 12
3 4 5 6 5 7 7 6 7 6 5 7 6 5 9 10 6 6 7 6 5 6 8 7 6 7 6 7 7 5 5 5 4 4 3 3 3 4 5 4 6 7 5 5 9 7 3 5 8 10 10 6 4 3 1 3 4 3 4 6 6 8 10 11 9 3 3 6 4 3 4 3 9 10 10 10 11 12 13 14 14 14 14 13 13 12 12 13
4 3 2 2 3 7 8 8 9 7 5 7 5 4 8 11 8 7 6 6 4 5 7 7 8 11 9 6 6 5 6 6 5 4 3 2 2 4 6 3 2 6 9 8 9 6 4 5 6 7 9 4 2 3 2 3 3 2 2 3 3 6 8 9 6 1 2 5 1 4 4 5 9 10 10 10 11 12 13 14 13 13 14 14 14 14 14 15
4 4 2 2 3 6 8 9 10 10 8 7 5 6 9 10 11 9 5 5 7 8 7 7 9 11 10 7 6 5 8 7 5 4 2 1 1 3 4 4 5 7 9 7 7 4 4 2 4 6 7 4 2 3 4 5 5 4 3 2 3 5 7 6 3 1 1 2 4 6 8 10 9 9 10 10 10 12 12 13 13 14 15 15 15 15 16 16
3 3 2 4 5 4 5 8 10 9 8 7 6 8 9 10 11 9 5 6 8 9 9 10 8 7 7 6 7 7 7 4 2 2 1 2 0 1 1 2 3 4 7 6 6 4 3 2 4 6 6 4 2 2 4 6 5 4 4 4 5 6 6 5 4 3 2 3 4 6 9 9 7 8 11 10 10 12 13 14 14 14 15 16 16 16 16 16
5 5 4 4 5 5 5 7 9 8 7 7 7 8 9 10 10 7 6 9 9 7 9 10 7 4 4 6 8 9 5 2 3 1 3 4 2 3 2 2 4 1 4 4 4 5 4 3 4 6 6 4 3 2 3 4 4 3 3 3 4 4 4 4 3 2 1 2 3 4 4 6 7 10 11 11 11 13 14 14 14 13 15 16 16 16 15 15
6 5 4 5 4 6 6 7 8 8 7 8 9 8 7 8 7 6 6 8 10 9 7 7 5 2 5 8 8 6 2 3 5 4 4 4 3 4 5 4 6 5 2 2 3 4 5 5 4 5 5 4 3 2 3 4 4 3 2 2 2 3 4 4 4 4 3 3 1 1 3 8 10 11 12 12 12 13 13 13 13 14 15 15 15 16 16 15
Wind_Direction
355 351 345 342 341 343 347 345 342 344 345 348 349 348 348 348 350 351 351 349 347 347 347 348 350 349 349 345 341 338 335 335 327 257 247 281 280 179 164 165 160 158 153 147 154 154 160 173 171 193 216 226 251 348 137 273 285 271 43 61 55 63 55 35 52 76 108 123 122 122 123 107 111 109 116 142 133 128 124 111 101 92 83 88 100 116 130 138
350 348 345 343 344 347 348 343 341 342 343 346 344 344 345 344 347 347 348 347 345 344 344 346 346 348 348 345 341 335 333 326 277 248 269 305 225 163 160 164 161 157 153 156 164 164 166 168 173 194 220 223 136 348 282 281 308 355 51 66 58 63 60 51 71 86 109 123 125 126 124 107 109 118 140 145 125 134 129 113 123 116 102 104 110 120 133 142
352 349 348 348 349 349 345 342 341 341 342 342 339 340 340 341 343 344 344 344 343 342 342 342 344 346 345 346 339 333 333 304 253 188 20 244 160 154 160 164 159 153 155 168 171 172 176 162 177 195 226 214 69 294 71 14 329 6 37 74 73 79 81 68 76 89 107 125 130 126 123 110 112 132 153 142 127 141 133 119 139 135 128 124 124 129 135 145
354 353 352 351 349 346 343 342 341 341 342 338 335 336 336 337 339 340 340 341 341 339 340 340 341 343 344 345 336 334 325 275 238 72 44 154 147 158 160 160 155 149 158 177 171 178 174 159 176 208 240 135 101 184 69 38 4 32 43 78 86 96 91 81 93 101 112 120 123 126 129 118 122 144 150 148 137 137 130 114 130 141 139 132 132 138 142 150
356 357 356 353 349 347 344 343 342 342 341 335 332 332 332 332 334 336 336 338 339 337 339 339 339 339 342 343 334 333 308 265 92 73 116 156 154 161 161 160 156 152 172 170 161 168 159 159 182 216 242 131 119 130 78 62 55 69 67 77 84 96 96 95 102 104 109 118 124 127 122 118 134 148 145 155 125 95 109 107 109 130 135 132 133 137 146 154
359 359 357 353 351 349 346 344 343 340 337 332 331 330 328 327 329 331 331 335 336 335 337 338 340 338 340 343 336 321 286 283 83 77 173 158 162 161 164 163 159 162 176 168 167 173 161 177 199 214 217 114 90 87 88 86 286 80 83 77 78 93 102 107 107 110 121 127 116 109 113 126 140 133 134 139 67 69 96 110 119 121 122 120 127 138 148 155
2 1 357 353 351 350 347 344 341 338 335 331 330 328 324 323 323 324 327 331 333 334 334 337 340 337 342 343 331 276 261 1 88 166 182 168 163 163 169 167 164 167 177 177 179 186 184 202 233 306 247 98 85 96 105 116 71 81 94 89 86 96 105 112 113 116 119 100 98 113 130 138 134 128 146 118 85 102 113 117 125 119 115 119 130 143 148 147
3 2 359 356 353 351 348 345 342 338 335 331 328 324 321 319 317 319 321 325 330 331 329 336 340 340 348 343 315 262 247 79 96 167 184 171 160 166 169 169 176 181 192 196 197 225 232 244 343 327 331 65 87 123 136 154 103 89 103 106 105 107 110 117 120 120 111 96 113 140 130 121 117 129 142 112 105 122 124 128 136 132 131 144 152 152 154 157
4 3 1 359 354 351 346 344 341 338 335 331 326 321 318 314 312 313 314 320 325 325 326 331 338 343 349 339 304 274 243 85 109 185 180 170 161 167 170 174 189 196 211 217 244 260 258 338 11 346 348 46 113 145 174 228 80 99 116 119 122 119 122 130 130 131 128 124 151 143 128 123 132 144 130 112 124 131 132 140 146 151 156 163 165 162 170 170
4 2 1 360 355 350 346 343 340 338 334 330 325 319 314 310 307 307 308 314 317 319 322 325 336 345 344 328 281 256 88 83 137 163 171 171 160 168 178 191 193 203 228 228 242 259 277 342 7 335 317 40 237 143 194 306 86 117 123 119 124 126 133 143 136 139 139 136 171 157 143 137 155 202 148 127 145 143 146 150 153 164 168 170 164 164 177 171
4 1 360 359 355 351 348 343 340 337 333 329 324 316 311 306 302 301 301 306 311 313 318 325 336 343 336 305 268 242 86 84 129 146 170 171 165 175 188 195 191 206 232 236 249 262 276 320 346 313 299 40 103 128 101 72 115 130 128 121 128 137 139 152 148 150 158 149 181 179 151 152 186 233 133 137 156 159 161 155 161 174 168 170 168 168 175 175
4 0 359 356 355 353 349 344 341 337 333 328 320 314 307 301 297 296 295 297 303 306 317 327 332 346 328 274 256 252 83 92 122 133 167 174 177 189 196 197 198 214 235 253 270 280 282 297 305 306 334 326 174 126 109 120 143 144 151 138 139 158 157 166 160 157 183 161 169 186 166 178 195 161 126 142 158 166 170 161 168 178 171 173 175 178 176 178
3 360 357 356 355 353 349 345 341 337 333 327 319 312 302 297 292 288 287 290 297 301 316 327 333 348 308 266 253 259 145 124 138 147 170 182 195 208 207 208 212 227 244 261 284 316 302 286 282 304 316 288 75 96 120 141 165 158 179 182 156 187 174 170 165 163 190 154 164 200 194 159 164 145 140 152 162 168 174 170 175 179 180 184 178 184 175 174
1 358 357 356 356 353 349 345 341 337 333 326 318 310 301 295 288 283 284 284 285 291 308 328 334 336 270 268 21 253 256 231 213 198 181 186 205 219 216 219 222 230 241 257 278 309 307 279 263 275 277 297 93 139 148 149 179 169 186 213 215 283 143 161 167 172 186 154 175 215 299 131 148 154 155 160 167 172 177 175 181 181 181 190 182 188 180 174
359 358 356 356 356 353 349 345 342 338 334 328 318 310 303 294 286 282 280 275 260 265 310 337 328 301 261 262 211 251 265 230 220 210 192 190 201 218 222 221 222 226 233 251 267 290 293 255 249 251 198 134 156 176 168 158 184 189 214 204 225 326 129 164 173 182 191 163 187 216 291 107 148 158 157 165 177 179 182 177 182 184 183 189 185 193 190 171
358 357 356 357 355 352 350 345 342 340 335 329 320 314 308 300 295 282 265 234 190 174 132 223 229 269 274 272 156 201 233 206 215 196 192 196 204 221 221 212 219 219 220 240 255 261 254 235 249 265 149 170 187 197 202 188 183 189 243 321 4 323 342 166 172 190 198 166 189 217 264 50 142 158 158 168 186 189 188 181 181 185 185 188 187 192 189 165
358 357 357 356 354 352 350 345 343 342 338 334 328 331 335 329 343 106 116 130 139 131 133 278 163 251 265 268 182 210 216 179 121 151 183 202 216 224 193 189 213 210 204 224 231 217 218 217 217 203 198 216 218 226 233 223 202 175 214 294 308 290 325 41 164 184 192 191 203 214 241 279 136 155 166 173 187 197 196 187 181 182 185 186 188 191 182 168
358 358 358 355 354 351 349 347 344 343 343 338 337 24 33 55 88 97 103 114 114 121 204 239 214 242 235 226 235 244 13 341 302 260 224 213 220 216 194 194 205 195 198 210 203 196 200 200 214 227 217 222 224 233 244 273 338 317 311 308 304 261 244 313 3 170 181 202 218 215 227 240 177 160 174 179 187 201 203 195 184 182 182 180 186 188 177 173
359 360 359 356 354 351 349 349 345 349 349 339 304 342 19 107 113 138 160 166 173 216 249 168 194 242 261 204 256 328 316 303 289 259 221 192 199 204 206 213 205 206 217 208 188 194 207 203 217 239 228 218 222 239 265 335 345 319 319 308 315 321 258 334 358 156 178 203 216 220 229 231 207 177 178 185 189 201 209 204 190 186 182 175 183 180 172 174
1 1 358 356 354 350 349 349 349 357 355 351 279 268 260 252 241 182 190 227 237 254 281 259 218 256 286 256 318 334 304 274 255 233 193 172 183 195 206 212 210 216 230 231 205 182 216 231 224 233 233 226 226 242 272 312 317 302 300 291 299 311 332 27 12 157 184 216 217 222 234 235 224 196 183 186 190 200 210 210 199 194 186 176 178 173 169 167
0 360 357 356 354 351 348 349 358 3 8 27 338 266 333 0 322 350 331 268 250 249 264 263 254 262 271 277 300 337 327 257 243 229 189 178 190 195 195 201 216 220 218 232 233 152 214 241 236 237 241 238 237 250 267 276 278 282 285 290 295 303 346 43 20 158 186 227 227 219 234 237 231 213 189 184 193 203 207 209 205 200 193 181 175 168 163 156
358 358 356 354 353 351 347 348 10 12 25 45 0 5 56 28 341 330 316 285 266 243 251 253 253 257 260 267 268 282 285 263 257 229 182 176 197 202 191 195 219 224 207 215 224 207 221 239 242 240 242 246 249 262 265 261 271 277 273 280 287 303 342 67 93 147 180 228 239 217 239 243 230 219 202 189 196 206 208 210 208 203 199 187 177 168 159 154
355 355 353 352 352 350 345 345 21 19 26 25 6 65 57 359 326 287 251 281 281 227 233 235 235 243 243 248 228 203 238 247 254 232 174 182 205 212 212 206 218 222 206 204 219 229 227 237 246 238 211 236 244 243 249 253 257 260 263 272 282 300 321 15 120 150 185 224 272 262 258 257 234 215 207 201 203 206 209 213 212 208 204 193 182 171 160 157
352 354 351 349 349 348 344 340 45 16 11 347 34 72 28 347 330 266 239 276 277 204 211 224 235 243 238 239 184 196 228 234 243 236 162 192 205 199 224 225 220 221 214 215 222 234 238 251 318 239 210 238 246 232 235 249 253 253 257 267 284 305 327 340 70 138 191 213 230 260 264 252 238 228 216 202 203 207 206 210 213 209 204 196 186 174 163 159
348 350 349 347 346 346 343 336 94 359 339 197 144 60 357 350 334 237 255 277 245 174 171 180 210 228 200 160 173 194 225 225 232 231 168 206 209 180 216 229 227 223 217 217 221 235 239 165 90 226 211 228 242 236 236 249 257 256 257 271 296 312 324 323 166 184 223 215 204 235 261 241 192 245 235 199 194 206 202 205 210 203 195 193 185 175 166 159
344 346 347 346 344 344 342 154 17 341 316 170 139 322 340 342 315 203 259 276 210 142 155 180 191 178 161 170 175 178 211 215 216 207 183 210 218 211 219 197 211 240 226 212 218 242 236 169 195 233 217 218 235 241 238 245 257 254 253 285 307 308 299 255 226 249 274 347 174 218 260 276 173 231 230 195 191 203 204 209 211 203 193 190 183 173 165 161
339 342 343 343 344 346 346 319 337 329 288 130 6 317 337 335 241 182 251 251 188 92 134 168 148 151 150 170 173 177 200 153 151 179 187 199 198 209 230 198 192 233 223 198 222 230 213 200 215 227 229 229 232 240 231 230 254 259 81 340 291 287 276 260 257 268 297 349 191 204 241 271 266 218 178 181 197 207 208 214 214 206 197 189 179 168 162 163
334 337 338 340 341 342 341 323 325 324 335 23 327 320 338 332 178 189 269 255 131 33 169 118 93 165 168 169 190 209 308 63 177 172 169 190 194 194 223 221 214 208 189 211 230 194 193 217 218 218 229 232 231 244 238 225 249 257 85 318 285 279 271 268 264 268 301 297 248 199 203 257 265 181 158 177 203 219 215 217 217 208 197 185 173 162 158 164
329 331 333 334 334 336 337 324 310 286 303 324 320 329 338 241 181 224 270 270 128 178 136 114 139 175 163 160 197 222 268 277 228 139 146 177 204 226 234 231 229 207 184 222 240 193 161 215 232 225 230 234 234 242 239 231 247 251 140 227 251 254 256 254 255 266 273 272 278 230 196 249 273 228 199 189 213 241 229 221 218 209 195 178 163 156 157 165
322 325 327 329 334 335 327 315 289 263 309 314 324 331 309 201 216 249 236 239 80 116 119 170 163 168 175 173 189 206 221 257 88 139 158 171 193 217 262 245 231 215 192 218 240 243 190 109 217 241 242 251 249 244 234 237 248 224 195 226 226 226 243 242 247 283 271 252 283 284 223 253 277 265 273 285 237 269 258 227 214 200 186 168 154 154 160 165
315 319 323 324 325 319 311 302 262 302 310 315 324 304 240 205 244 261 226 162 351 144 165 177 139 160 189 194 194 187 202 228 140 165 172 165 185 192 182 187 205 217 213 211 229 241 229 202 207 227 233 247 251 238 219 223 231 225 231 239 232 221 233 247 231 262 271 254 269 323 259 254 263 275 299 1 147 231 287 356 64 126 153 152 149 158 162 163
310 314 316 315 313 303 290 278 293 299 301 314 314 260 227 216 230 246 201 161 219 179 155 109 139 171 188 224 216 186 190 193 168 184 188 179 187 190 194 196 185 201 217 212 216 226 227 228 227 213 208 220 233 231 212 207 213 223 235 235 234 232 225 238 237 224 251 256 205 249 261 254 261 274 289 291 219 216 356 45 51 75 125 140 148 158 160 164
309 311 311 309 306 296 287 288 290 289 294 303 282 234 227 240 228 226 223 207 83 36 7 324 234 213 208 222 200 181 191 180 166 187 196 196 200 194 201 211 199 212 229 212 210 214 220 227 221 212 203 206 221 231 218 208 209 216 227 228 230 238 232 235 241 239 249 256 225 242 264 262 264 260 269 278 272 60 55 66 65 78 115 133 145 154 160 169
309 309 310 308 301 293 290 289 280 276 284 278 241 215 222 234 222 105 234 212 45 358 306 276 259 236 222 228 183 173 198 191 172 185 188 199 216 202 199 207 210 228 250 223 219 227 230 224 201 205 204 193 208 228 237 236 224 216 222 231 235 241 249 252 251 248 251 244 193 185 234 267 279 288 212 270 104 74 68 85 92 97 115 131 143 153 164 167
310 311 311 306 297 293 286 276 267 251 247 244 226 214 218 224 216 204 216 136 22 318 302 267 244 216 201 211 193 183 212 206 185 196 198 199 212 209 203 200 200 219 238 223 219 224 241 260 194 187 176 189 206 217 229 243 244 222 219 230 237 240 248 260 268 276 275 261 225 201 228 265 282 213 176 233 148 90 85 98 108 111 122 136 144 155 163 154
315 314 308 293 285 289 272 261 250 205 206 232 220 215 224 232 246 204 120 17 334 323 311 245 208 209 185 172 185 185 209 219 185 194 211 206 216 217 214 202 189 204 222 224 217 206 238 256 189 177 197 213 223 222 215 228 239 222 216 226 236 252 257 255 256 264 273 267 257 234 242 261 271 247 204 218 143 95 95 104 111 118 131 142 147 155 155 142
321 313 296 269 261 268 259 255 215 185 202 232 222 225 238 234 250 267 22 345 304 313 302 252 185 220 192 166 175 172 176 194 182 194 206 197 216 218 215 218 194 203 217 231 242 222 243 259 178 192 220 206 219 251 227 230 245 239 228 226 216 235 259 262 259 242 240 257 259 249 259 272 280 281 209 200 131 104 103 108 114 126 139 145 147 149 144 142
319 303 283 247 235 260 259 231 186 186 210 228 226 239 246 221 220 229 276 319 297 285 288 276 145 267 206 177 167 161 174 185 173 195 210 186 196 204 209 220 208 212 222 231 241 216 235 267 206 201 228 175 164 234 235 224 235 249 277 264 224 221 231 228 242 249 247 255 257 254 262 273 280 291 313 357 104 111 112 113 121 130 138 143 144 142 141 146
302 284 256 176 255 271 232 184 178 199 217 216 220 224 228 226 214 220 245 282 286 274 283 306 46 269 244 185 153 157 183 194 167 190 214 192 179 181 202 219 211 213 220 223 233 223 215 256 241 162 171 171 173 212 231 209 204 231 264 263 229 240 253 230 227 246 253 260 262 261 259 266 306 346 13 47 93 116 121 118 123 128 134 140 143 146 148 155
288 269 165 54 305 223 165 165 187 211 210 216 230 208 196 229 223 223 228 235 263 264 282 322 309 243 244 157 138 157 187 209 193 198 205 185 186 185 193 210 213 208 212 217 226 232 212 234 251 141 140 213 212 198 229 226 192 203 227 232 220 220 255 258 243 241 252 263 263 265 264 266 24 29 50 74 93 111 117 119 123 129 135 140 147 154 157 162
284 254 123 55 128 149 151 174 201 206 209 220 241 225 203 243 240 220 202 213 251 261 278 299 289 282 291 225 143 143 182 205 208 213 207 190 209 217 187 200 212 182 185 214 219 221 216 219 247 230 189 227 212 160 232 263 244 212 207 215 221 215 222 239 238 229 240 260 267 271 275 297 57 34 52 81 95 106 113 120 125 133 138 142 151 158 159 164
263 239 89 109 135 142 177 205 186 202 223 214 228 232 197 222 248 236 207 204 229 240 246 270 274 270 270 260 157 146 205 205 196 210 217 203 215 219 163 184 211 186 181 214 207 206 221 229 246 250 242 258 267 122 213 279 279 261 237 223 222 219 222 233 239 236 232 246 266 273 274 349 63 47 67 89 97 103 113 122 127 134 139 143 151 153 156 161
240 231 97 145 165 230 241 204 179 209 219 192 197 217 183 208 237 228 206 206 215 225 228 243 259 249 242 262 264 223 216 197 191 205 208 202 211 206 151 166 203 203 205 216 192 181 200 230 236 244 251 260 264 149 188 240 253 251 246 240 240 235 232 241 258 269 253 244 249 261 262 101 80 76 93 99 98 102 115 125 129 132 136 144 149 147 148 147
253 274 112 164 203 265 239 202 192 204 204 196 208 208 204 230 242 231 219 215 207 218 233 238 247 243 240 267 262 252 259 202 193 201 208 198 181 146 169 185 198 209 211 222 185 171 180 215 226 235 237 221 202 182 187 195 211 226 230 222 229 240 243 251 266 273 264 256 251 261 272 77 99 121 119 112 108 111 120 126 128 131 137 144 145 143 143 139
260 246 178 169 201 233 244 242 233 209 198 199 209 210 209 214 228 235 240 237 222 231 248 244 254 263 251 253 257 255 259 243 196 183 208 200 161 132 191 194 207 229 229 281 345 188 194 206 204 228 243 217 200 203 184 186 198 209 220 214 217 233 236 239 249 240 244 256 253 260 270 102 116 136 127 119 117 119 124 127 128 132 139 143 145 148 148 143
249 220 180 168 190 220 244 264 264 237 198 193 205 209 211 211 204 209 230 239 226 227 248 258 261 263 247 243 251 234 211 220 221 212 218 203 173 149 170 191 217 232 224 200 222 207 208 221 213 237 261 282 334 5 26 318 230 197 203 211 216 230 232 233 245 247 253 259 250 262 261 134 136 140 134 133 131 129 132 134 134 137 141 144 149 153 148 143
256 232 185 169 182 211 225 220 227 238 201 193 199 191 208 220 205 183 202 224 217 217 238 249 247 245 233 225 234 215 178 188 212 221 221 207 192 169 167 198 232 213 164 185 213 210 214 220 213 230 252 282 321 334 4 278 259 208 199 211 214 221 224 229 238 255 273 251 247 323 330 136 135 136 141 143 139 137 140 142 143 143 144 148 152 153 147 142
235 256 208 177 200 200 206 205 206 210 196 194 199 187 208 218 210 197 197 204 212 215 220 223 225 235 238 227 228 207 179 186 194 194 200 198 218 209 180 127 102 164 165 181 197 207 241 219 195 215 231 242 275 269 237 214 217 200 197 200 204 201 204 220 233 282 285 259 309 35 34 87 110 128 141 142 144 146 144 144 145 143 144 149 151 151 147 144
226 267 251 238 245 207 196 195 196 202 201 201 207 208 216 218 213 211 201 194 205 207 218 227 216 217 225 230 243 215 188 201 198 165 179 222 227 244 198 117 103 153 170 173 173 208 269 221 170 211 215 187 187 215 208 207 200 180 169 160 178 187 192 206 210 82 22 16 59 87 93 84 90 121 130 129 137 141 138 140 145 145 147 151 151 151 149 148
248 300 248 219 239 230 203 191 193 201 200 199 212 214 219 225 219 212 200 203 205 189 202 228 218 201 214 229 244 225 201 232 244 135 358 303 248 336 332 85 79 153 172 180 175 189 249 204 175 214 208 169 165 190 198 213 205 165 139 138 153 164 171 174 151 124 122 95 106 128 110 91 94 117 122 126 132 136 139 144 146 148 151 153 153 152 150 150
280 318 326 268 231 203 203 196 195 205 199 195 208 208 212 223 223 218 208 215 226 204 192 214 219 201 219 232 239 233 218 282 303 329 333 315 322 336 328 5 347 311 172 186 187 186 223 209 174 214 223 178 154 185 201 202 187 164 141 123 136 145 141 136 115 81 29 94 156 175 125 109 126 129 130 139 145 144 145 146 146 149 153 156 155 152 150 150
267 268 268 275 238 188 195 196 193 204 206 202 206 204 211 216 209 214 215 208 226 237 225 229 244 242 225 222 226 241 283 336 315 319 319 302 296 294 285 292 300 290 251 212 205 197 226 223 185 216 231 181 158 203 208 194 200 198 154 97 84 104 107 107 100 80 18 343 293 244 87 114 135 142 142 147 152 151 148 148 150 150 154 157 155 154 153 151
Height
806 805 804 802 801 800 799 798 797 796 795 793 792 791 790 789 788 787 786 784 784 783 782 781 779 779 777 775 773 771 769 768 768 768 767 765 765 766 766 766 767 770 772 774 775 775 775 775 774 773 772 771 770 769 769 767 763 767 776 791 800 802 805 802 800 800 802 809 808 805 803 806 811 807 802 800 803 805 806 806 805 806 806 808 809 810 812 814
806 805 803 802 801 800 799 798 797 796 795 793 792 791 790 789 788 787 785 784 784 783 782 781 780 779 777 776 773 771 769 767 767 766 765 765 765 766 766 767 768 770 772 774 774 773 774 774 773 772 772 773 771 770 771 768 765 772 780 796 804 803 802 796 796 797 798 805 806 804 802 803 808 807 803 807 812 808 810 811 807 810 810 809 810 811 813 814
806 805 803 802 801 800 799 798 797 796 794 793 792 791 790 789 788 786 785 784 783 782 781 780 780 778 777 776 773 772 769 766 767 767 764 765 766 766 767 768 769 770 772 773 773 772 772 773 772 772 773 775 773 771 774 770 770 773 780 801 806 797 798 794 795 796 795 799 803 805 802 804 806 803 803 809 813 811 813 813 810 814 813 811 811 811 813 814
806 805 803 802 801 800 798 797 796 795 794 793 792 791 790 788 788 786 785 784 783 782 781 780 779 778 777 775 774 772 768 769 771 767 765 765 766 767 768 769 770 771 773 773 773 773 772 771 771 772 775 778 775 772 776 774 774 776 781 800 800 790 798 797 794 795 794 796 801 804 804 807 805 800 803 807 813 815 813 810 810 812 812 811 811 811 812 813
806 805 803 802 801 800 798 797 796 795 794 793 792 791 789 788 787 786 785 784 783 782 780 780 778 777 777 774 775 770 771 783 776 764 766 766 767 768 768 770 771 772 774 774 774 773 772 771 772 774 776 779 778 776 780 774 771 782 787 792 790 788 799 798 792 795 795 796 800 802 805 806 803 802 803 805 813 815 810 808 808 808 809 810 810 811 812 812
806 804 803 802 800 800 798 797 796 794 793 792 791 790 789 788 787 786 785 784 783 782 780 780 778 777 776 774 774 770 777 789 774 764 769 766 768 768 769 771 771 773 774 774 772 772 773 772 775 778 776 777 779 780 782 774 770 786 793 788 787 788 797 797 794 797 796 798 801 801 802 800 803 807 804 804 811 810 805 805 806 807 808 809 810 811 812 812
806 804 803 802 800 799 798 797 795 794 793 792 791 790 789 788 787 786 784 784 783 781 780 779 778 777 775 773 773 770 774 777 766 766 769 766 770 769 770 772 771 774 773 773 772 771 773 774 777 776 775 779 781 781 781 776 771 785 795 792 790 790 795 796 795 798 797 799 801 798 799 801 806 809 805 806 808 805 803 804 805 807 808 810 811 811 812 813
806 805 803 802 800 799 797 796 795 794 793 791 790 789 788 787 786 785 784 784 782 781 781 779 779 777 776 774 772 773 773 770 766 768 768 767 770 769 772 773 773 775 773 772 771 770 773 775 776 773 778 781 778 780 779 778 778 784 793 793 792 793 795 795 796 799 800 801 800 798 802 804 802 803 806 808 806 803 803 804 806 808 810 811 812 812 813 813
806 805 803 802 800 799 797 796 794 793 792 791 790 788 787 787 786 785 784 783 782 782 780 779 779 777 777 773 772 779 774 767 767 767 768 769 770 771 773 773 774 775 773 773 770 771 773 774 774 772 779 779 775 779 777 782 787 784 788 791 793 796 795 796 798 800 801 801 801 804 809 806 799 800 807 807 804 802 802 805 807 808 811 812 812 813 813 814
807 805 803 802 800 799 797 795 794 792 791 790 789 787 787 786 785 784 783 783 782 781 780 780 779 778 779 774 776 784 772 765 768 768 768 769 770 772 773 773 775 774 773 772 770 771 771 772 770 766 772 775 775 778 777 783 785 780 784 789 792 796 795 795 798 799 799 801 802 807 812 807 799 803 810 807 802 802 803 807 807 809 812 811 812 813 813 814
806 805 804 802 800 799 796 795 793 792 791 789 788 787 786 785 784 784 783 783 781 781 780 780 779 779 778 776 781 782 768 767 770 768 770 770 771 772 772 774 774 774 773 771 771 770 769 769 766 766 773 774 775 780 779 777 778 779 785 791 794 794 796 796 798 799 799 803 802 804 810 809 804 805 806 803 801 801 804 807 808 809 810 810 812 812 812 814
806 805 803 801 800 798 796 795 793 791 790 788 787 785 785 784 783 783 782 782 781 781 780 780 780 779 777 777 778 773 766 769 770 769 771 770 772 772 772 774 773 774 773 770 770 769 770 769 767 774 776 772 779 786 783 774 775 781 783 795 801 796 800 799 797 799 800 804 800 802 815 816 811 807 800 799 799 801 803 807 809 809 809 810 811 811 812 813
806 804 803 801 800 798 796 794 792 791 789 787 786 784 784 783 781 781 781 781 781 780 780 780 779 778 780 779 771 767 767 769 769 770 771 771 772 772 773 774 773 774 773 771 770 769 771 770 769 774 769 771 783 783 777 774 778 785 784 792 801 801 803 797 795 799 800 802 796 804 821 817 810 804 797 797 798 801 805 807 808 809 809 809 809 810 811 811
805 804 803 801 799 797 795 793 792 790 788 786 784 783 782 781 781 780 779 780 779 780 780 780 780 779 780 776 766 766 768 768 769 769 770 771 771 772 772 772 772 773 772 772 771 770 771 769 769 771 767 770 777 775 778 783 783 788 792 793 796 803 805 794 793 800 803 801 794 806 819 811 806 802 796 796 796 800 805 805 806 807 808 809 809 810 810 810
805 804 802 801 799 797 795 793 791 788 787 785 783 782 780 779 779 778 779 779 778 780 779 779 780 778 780 774 765 765 767 767 768 768 769 770 770 770 769 770 771 771 772 772 772 772 771 770 771 775 773 769 772 782 790 792 788 789 800 803 796 800 804 794 791 794 801 800 793 806 815 805 803 800 794 796 796 799 803 803 804 804 806 808 808 809 810 809
805 804 802 800 798 796 794 792 790 788 786 784 782 781 779 779 778 778 778 777 778 780 779 780 778 779 784 776 765 765 766 766 766 767 768 769 769 768 767 769 769 770 772 771 771 771 769 770 771 771 774 776 780 787 792 796 796 793 800 806 799 799 800 795 793 788 791 798 797 804 810 804 801 796 793 795 796 798 800 801 801 803 804 805 808 808 808 810
805 804 802 800 798 796 794 791 789 787 785 783 782 780 779 779 778 778 778 778 779 778 779 780 776 779 780 769 765 767 764 764 766 766 768 768 769 768 767 768 768 768 769 770 771 771 769 771 774 773 775 780 780 784 799 809 805 796 796 799 796 796 797 796 796 788 786 797 800 802 805 802 797 794 794 794 795 797 798 799 799 800 802 803 806 806 807 810
805 803 801 800 797 795 793 791 788 786 785 783 781 781 780 779 778 778 778 778 778 779 782 779 778 787 783 767 767 768 763 765 766 766 767 767 768 768 767 767 766 766 770 773 772 772 773 773 776 782 783 784 783 788 804 810 802 799 797 797 794 791 794 796 793 787 787 797 799 800 805 800 793 793 794 792 793 796 796 795 796 797 799 802 804 805 807 809
805 803 801 799 797 795 793 790 788 786 784 783 782 782 780 779 779 778 778 779 780 781 783 779 778 786 782 768 764 764 763 765 765 765 765 765 767 767 766 766 765 768 776 781 778 772 774 778 784 791 792 789 787 787 791 792 791 795 793 794 795 791 790 787 783 780 784 796 799 798 801 797 792 793 793 791 790 794 795 791 793 795 795 799 802 804 806 809
804 802 801 799 797 794 792 790 788 786 784 783 782 781 781 781 781 780 777 775 775 773 772 772 771 772 771 765 763 763 764 763 764 763 762 764 765 766 766 765 768 773 778 783 780 769 772 788 793 791 788 782 781 779 778 779 783 789 790 791 790 789 787 782 780 777 778 793 798 792 794 792 789 788 788 790 789 793 795 792 792 793 793 796 799 803 805 808
804 802 800 798 796 794 792 790 788 787 785 783 782 781 782 784 786 786 781 774 767 764 766 765 765 767 765 763 763 764 766 766 763 760 762 762 761 769 769 768 778 783 778 777 776 770 777 794 791 779 774 773 774 775 775 780 784 787 790 791 788 787 785 781 782 778 776 791 793 786 792 792 786 784 783 786 790 792 791 791 792 791 791 793 796 801 804 807
803 802 799 798 796 793 791 789 788 787 785 784 782 781 782 784 787 787 785 781 768 761 764 763 764 766 762 762 763 764 770 773 768 759 759 761 763 771 771 771 782 783 774 775 782 785 791 793 781 768 767 770 774 775 777 783 785 786 787 790 792 784 781 786 786 780 780 791 792 787 793 791 782 780 780 782 787 786 784 784 787 788 790 792 794 798 802 807
803 801 799 797 795 793 791 789 789 787 786 785 783 782 784 785 785 784 786 786 774 763 762 764 766 766 763 763 762 764 771 774 772 762 755 761 766 767 769 774 780 778 776 782 788 795 797 787 770 762 767 775 780 778 781 785 785 786 786 791 793 781 784 795 792 786 783 787 791 792 794 789 781 781 781 779 779 780 780 779 780 782 786 789 791 794 799 805
802 800 799 796 794 793 790 788 788 787 787 786 785 785 785 786 785 785 785 782 776 766 761 761 762 762 763 761 759 764 769 767 768 763 754 760 765 765 768 772 776 779 778 779 782 788 789 777 765 766 772 777 782 782 784 789 788 784 781 787 789 780 783 791 788 788 787 787 789 793 798 790 779 785 785 778 777 778 778 780 780 780 781 785 788 792 797 801
801 800 798 796 794 792 789 789 787 788 788 785 786 785 785 785 783 785 786 783 778 768 761 761 761 760 758 758 760 760 764 764 761 758 753 755 761 766 769 766 772 782 778 775 782 785 781 770 767 775 778 777 783 785 783 787 791 788 780 777 781 780 782 786 787 790 794 797 790 790 807 799 779 786 789 778 779 781 778 781 782 781 782 785 789 792 796 799
801 799 797 796 794 791 789 787 787 788 786 784 786 785 784 785 783 784 787 787 781 769 766 765 764 762 757 759 759 756 769 769 753 750 753 754 754 759 770 769 771 778 773 771 780 781 775 770 770 778 781 781 785 786 779 779 791 794 779 770 775 779 782 786 788 791 795 800 790 784 804 806 786 783 782 775 781 783 779 780 779 780 782 784 787 790 795 800
801 799 797 796 793 791 789 787 788 787 785 785 785 784 785 783 782 784 788 794 786 769 767 767 763 762 758 758 755 761 779 769 751 751 751 754 753 754 770 774 773 777 768 773 788 782 773 776 778 778 782 785 788 787 776 774 789 791 774 770 776 779 783 784 786 789 786 788 789 782 792 804 795 783 774 773 782 784 780 779 776 775 779 781 784 788 794 798
800 798 797 796 794 794 791 791 790 786 785 786 784 785 784 782 783 784 793 805 789 765 764 764 759 758 755 756 755 761 768 760 762 761 746 751 755 756 771 771 770 774 766 778 796 780 768 777 779 778 783 785 783 778 767 770 785 780 768 771 776 777 781 780 782 786 782 789 799 787 787 805 800 781 774 775 781 784 781 776 773 771 774 778 782 788 794 797
799 798 796 795 794 793 792 792 790 787 786 785 784 785 782 782 784 784 797 805 781 761 762 761 760 759 756 760 761 761 759 757 765 760 746 753 754 755 769 765 762 771 767 774 785 773 767 771 769 772 781 780 774 767 762 771 779 770 766 772 775 776 778 778 783 784 786 803 808 790 786 804 799 777 771 778 783 782 775 768 767 767 770 776 781 788 794 796
798 797 795 794 793 792 792 790 787 786 786 784 785 783 781 784 786 794 808 799 774 764 762 759 762 762 761 767 768 764 763 760 758 755 754 758 755 755 761 757 758 770 771 773 775 769 765 764 765 769 773 769 765 763 762 768 769 766 770 776 779 780 778 780 782 784 800 814 805 788 783 797 804 782 765 771 777 772 765 762 763 764 769 776 782 789 793 794
797 796 795 793 793 793 792 788 785 785 785 784 784 781 783 786 788 803 806 783 769 769 763 761 764 762 763 769 769 766 766 764 758 760 764 762 763 764 765 767 769 775 780 780 777 771 767 771 771 766 763 762 766 769 766 764 765 770 776 779 787 792 791 794 794 799 821 822 801 789 783 793 808 790 763 761 764 760 760 761 763 767 771 777 783 787 789 791
796 795 794 792 791 791 790 787 784 784 784 784 783 780 785 793 796 799 788 772 776 775 765 767 766 762 765 768 767 765 765 766 761 761 765 765 769 769 769 773 775 785 794 787 781 776 771 770 765 761 759 760 771 778 773 769 770 776 779 783 798 808 812 819 814 811 820 810 790 785 788 796 799 781 761 759 759 757 758 762 766 769 772 776 781 785 787 788
795 793 791 790 789 787 786 785 784 784 783 783 783 779 786 803 801 787 775 773 779 771 763 767 764 762 769 769 767 764 763 766 762 761 762 762 768 767 764 762 763 778 787 781 781 783 780 769 759 765 765 758 767 779 782 778 775 779 781 786 800 808 821 831 820 812 813 802 785 781 793 803 792 769 756 754 755 756 758 765 770 770 771 775 778 783 787 787
792 790 789 787 785 784 782 782 781 782 782 782 783 783 795 806 793 778 776 772 769 765 763 767 765 766 770 768 764 760 765 769 761 763 766 765 771 771 766 764 762 767 773 778 781 782 790 784 765 765 766 757 761 767 768 767 767 770 766 772 786 791 804 816 809 809 810 800 791 791 801 804 791 771 757 752 754 757 761 766 769 771 772 776 779 783 787 788
790 788 786 783 782 781 779 780 779 780 783 781 782 789 799 798 782 775 776 768 766 768 764 763 765 770 770 766 761 755 762 768 761 764 768 767 772 770 765 766 764 764 771 783 781 775 788 785 758 752 754 753 759 756 751 761 770 763 754 767 778 771 777 791 791 791 795 796 796 795 795 784 768 758 751 752 756 758 764 767 770 776 777 779 784 786 788 793
788 786 784 781 779 778 778 779 778 779 780 780 787 792 789 781 773 772 770 767 769 771 768 766 766 769 770 766 765 760 759 761 761 766 768 765 766 763 760 758 757 762 768 775 777 775 788 781 753 752 756 749 753 750 745 760 770 761 761 773 767 751 760 781 788 782 789 804 797 786 786 772 760 756 748 751 762 765 770 772 773 780 781 782 787 789 791 797
787 784 781 778 777 777 777 777 777 779 779 780 788 788 777 769 767 767 766 766 768 768 771 772 767 766 768 767 766 764 761 761 762 767 769 768 766 760 759 756 752 756 758 762 768 767 777 778 755 754 763 750 743 748 746 747 753 761 771 766 752 754 762 774 792 793 798 811 796 780 786 781 777 776 757 752 766 774 776 776 778 782 783 786 789 790 793 798
786 783 778 775 775 775 775 776 777 777 777 781 787 783 774 770 765 763 764 766 767 769 772 772 766 762 763 765 764 760 762 765 766 768 768 769 767 756 756 758 752 751 749 754 765 760 767 782 764 748 758 753 743 755 762 752 746 756 761 749 752 777 782 778 793 801 803 811 799 785 786 781 777 773 760 759 771 779 781 778 781 785 786 789 791 792 795 797
785 781 774 772 773 772 773 775 775 775 778 784 786 780 773 769 763 761 763 765 768 771 772 768 765 763 759 759 760 758 761 763 763 766 767 767 766 753 748 752 750 749 746 749 761 758 761 783 777 751 750 755 752 762 772 764 754 754 757 751 752 768 773 773 780 784 793 805 802 795 792 783 773 763 763 771 774 777 782 781 784 788 789 791 793 794 796 797
784 779 773 769 771 771 772 774 774 776 779 779 777 773 769 767 763 760 760 763 766 768 769 767 765 766 761 757 756 756 759 760 758 762 763 761 763 755 745 746 748 747 746 746 754 756 759 778 783 762 752 760 762 761 761 759 758 762 769 768 762 761 763 768 770 767 779 796 799 802 798 784 774 768 768 774 773 774 779 782 788 791 790 793 794 794 796 795
783 780 772 768 770 770 771 776 775 775 776 774 771 769 769 767 764 761 759 761 764 762 763 766 766 765 763 760 757 754 757 760 757 759 760 757 760 757 744 740 745 747 751 755 755 757 762 772 779 771 763 764 758 746 743 745 747 754 763 764 762 762 766 780 785 770 769 780 785 793 795 782 775 774 771 772 773 774 777 783 789 791 792 794 793 794 795 795
782 778 771 769 771 770 772 774 772 770 771 770 768 766 767 766 765 763 760 761 764 761 760 764 765 763 762 759 756 755 755 757 756 757 757 753 752 751 741 735 739 741 749 757 753 748 752 762 773 773 763 754 744 736 739 742 740 743 749 747 749 752 758 780 791 775 769 773 770 777 788 785 779 774 771 772 772 773 778 784 789 791 793 794 793 794 795 795
778 773 770 771 771 769 772 773 771 772 769 765 763 763 764 766 765 764 762 762 764 763 763 764 761 760 759 755 755 756 754 755 756 753 752 751 745 739 735 735 739 740 745 752 750 746 752 763 773 773 761 746 739 738 740 741 744 751 750 742 744 746 747 757 763 762 769 773 772 781 788 786 782 775 771 773 773 776 782 785 788 792 794 795 795 795 796 798
773 769 767 770 771 770 771 770 770 772 768 764 766 766 764 764 764 763 763 762 761 761 764 762 757 757 755 753 754 754 753 757 757 749 748 751 744 734 733 735 738 742 743 745 745 747 758 766 770 777 777 768 762 759 757 753 753 755 750 743 744 744 744 749 750 758 773 769 767 781 786 783 782 775 772 773 776 783 788 786 790 794 795 796 797 798 799 801
774 771 767 767 768 769 767 762 761 764 764 766 769 767 765 764 760 759 761 759 757 758 761 758 754 754 752 753 755 752 748 753 755 749 747 748 742 735 734 736 738 739 738 737 736 740 753 761 765 777 785 783 782 777 770 761 754 750 747 744 746 744 747 755 757 767 778 770 764 773 779 784 785 776 774 777 780 788 792 790 793 795 796 798 798 800 801 803
773 771 768 768 767 766 764 759 758 760 760 766 769 765 766 765 759 755 758 759 755 754 757 756 753 754 755 755 757 754 748 747 749 750 748 746 742 736 734 736 738 737 737 738 736 738 750 756 758 766 768 767 771 767 758 754 751 751 751 749 749 747 746 752 760 767 770 768 770 767 764 779 788 780 778 780 782 790 794 794 796 797 798 799 800 801 801 803
773 767 763 766 768 768 765 760 759 759 757 762 766 764 764 764 760 757 757 757 753 753 756 755 753 757 757 755 756 754 750 748 748 749 748 745 740 735 733 734 735 736 739 741 736 739 755 760 754 757 758 753 755 755 750 752 753 752 753 753 752 750 749 754 761 763 760 767 777 769 759 772 783 779 779 780 782 790 794 795 797 797 798 800 800 800 802 805
772 764 755 758 763 765 764 760 758 758 758 759 761 762 763 762 761 761 758 755 753 753 756 757 755 754 752 751 753 754 752 753 752 749 747 745 742 739 736 735 735 737 739 739 736 739 753 757 750 752 756 751 751 751 748 750 753 751 752 753 751 751 754 757 758 757 757 766 774 769 765 771 776 776 777 777 781 788 791 793 795 796 799 800 800 802 804 807
767 764 756 755 758 756 755 754 754 757 760 760 761 763 762 761 760 757 752 755 757 753 754 759 755 749 746 746 749 753 754 756 756 752 747 746 745 743 742 742 739 735 735 739 739 739 749 754 749 751 755 753 751 750 746 747 751 751 750 750 750 750 751 753 755 754 756 761 763 763 769 774 773 773 775 776 779 784 788 792 795 797 800 801 802 804 805 808
767 765 760 758 758 754 751 751 754 758 758 760 763 761 757 758 758 752 749 754 759 753 752 756 751 744 745 746 748 751 747 745 750 749 746 749 748 745 745 746 741 735 735 739 741 742 750 755 751 750 757 757 751 748 747 747 749 752 753 749 747 750 751 752 755 755 756 762 762 761 771 779 774 771 776 780 781 785 790 794 796 798 799 800 802 805 806 809
769 767 765 764 760 755 754 752 752 757 758 759 761 757 755 757 754 751 750 747 748 749 748 750 747 744 746 748 749 747 739 737 742 741 740 745 746 744 743 740 739 740 739 740 741 744 750 755 752 754 763 762 752 750 751 746 748 757 760 755 751 753 754 754 754 755 756 761 762 762 770 780 777 775 781 785 784 786 791 794 796 798 799 800 802 805 807 810
770 768 767 767 761 753 753 752 751 756 755 752 752 752 753 753 748 751 754 746 741 742 741 741 745 747 749 751 748 742 734 735 737 733 733 736 735 735 735 733 735 739 740 740 742 743 746 750 752 756 764 762 752 751 750 749 760 770 765 757 755 753 754 754 754 755 755 756 761 767 771 774 775 777 784 787 786 787 791 792 795 798 799 800 802 804 807 809